• In Switzerland
  • List of Countries
  • For 7 days
  • Water Temperature
  • Satellite Maps
  • Weather Map
  • Weather Widgets
  • user-avatar
    Login

    Hourly Weather Lincoln

    Today, 25 February, Sunday

    Time Temperature Precipitation Wind Pressure Humidity
    00:00 -2°C° 0 mm 4 mps 766 mmHg 81%
    01:00 -2°C° 0 mm 4 mps 766 mmHg 79%
    02:00 -2°C° 0 mm 4 mps 766 mmHg 78%
    03:00 -2°C° 0 mm 5 mps 766 mmHg 77%
    04:00 -2°C° 0 mm 5 mps 766 mmHg 76%
    05:00 -2°C° 0 mm 4 mps 766 mmHg 75%
    06:00 -3°C° 0 mm 4 mps 767 mmHg 74%
    07:00 -2°C° 0 mm 5 mps 767 mmHg 70%
    08:00 -1°C° 0 mm 5 mps 767 mmHg 66%
    09:00 -2°C° 0 mm 6 mps 767 mmHg 62%
    10:00 -1°C° 0 mm 6 mps 767 mmHg 59%
    11:00 +1°C° 0 mm 6 mps 767 mmHg 56%
    12:00 +1°C° 0 mm 6 mps 768 mmHg 53%
    13:00 +1°C° 0 mm 6 mps 767 mmHg 54%
    14:00 +1°C° 0 mm 6 mps 767 mmHg 54%
    15:00 +1°C° 0 mm 6 mps 767 mmHg 54%
    16:00 -1°C° 0 mm 6 mps 768 mmHg 58%
    17:00 -1°C° 0 mm 5 mps 768 mmHg 61%
    18:00 -2°C° 0 mm 5 mps 768 mmHg 65%
    19:00 -2°C° 0 mm 5 mps 768 mmHg 66%
    20:00 -4°C° 0 mm 5 mps 769 mmHg 66%
    21:00 -4°C° 0 mm 5 mps 769 mmHg 67%
    22:00 -4°C° 0 mm 5 mps 769 mmHg 67%
    23:00 -3°C° 0 mm 4 mps 769 mmHg 67%

    Tomorrow, 26 February, Monday

    Time Temperature Precipitation Wind Pressure Humidity
    00:00 -2°C° 0 mm 4 mps 770 mmHg 67%
    01:00 -2°C° 0 mm 4 mps 770 mmHg 68%
    02:00 -2°C° 0 mm 4 mps 770 mmHg 69%
    03:00 -2°C° 0 mm 4 mps 770 mmHg 70%
    04:00 -2°C° 0.1 mm 5 mps 770 mmHg 70%
    05:00 -4°C° 0.1 mm 5 mps 770 mmHg 69%
    06:00 -4°C° 0.1 mm 5 mps 770 mmHg 69%
    07:00 -2°C° 0 mm 5 mps 770 mmHg 66%
    08:00 -3°C° 0 mm 6 mps 770 mmHg 62%
    09:00 -2°C° 0 mm 6 mps 770 mmHg 59%
    10:00 -2°C° 0.1 mm 6 mps 771 mmHg 57%
    11:00 -2°C° 0.1 mm 7 mps 771 mmHg 56%
    12:00 -1°C° 0.1 mm 7 mps 771 mmHg 54%
    13:00 -2°C° 0 mm 7 mps 770 mmHg 54%
    14:00 -2°C° 0 mm 7 mps 770 mmHg 55%
    15:00 -2°C° 0 mm 7 mps 770 mmHg 55%
    16:00 -2°C° 0 mm 6 mps 770 mmHg 58%
    17:00 -3°C° 0 mm 6 mps 770 mmHg 62%
    18:00 -2°C° 0 mm 5 mps 770 mmHg 65%
    19:00 -4°C° 0 mm 5 mps 770 mmHg 66%
    20:00 -4°C° 0 mm 5 mps 770 mmHg 68%
    21:00 -4°C° 0 mm 5 mps 770 mmHg 69%
    22:00 -3°C° 0 mm 4 mps 769 mmHg 70%
    23:00 -3°C° 0 mm 4 mps 769 mmHg 72%

    Day after tomorrow, 27 February, Tuesday

    Time Temperature Precipitation Wind Pressure Humidity
    00:00 -2°C° 0 mm 3 mps 768 mmHg 73%
    01:00 -2°C° 0.4 mm 3 mps 767 mmHg 78%
    02:00 -2°C° 0.4 mm 3 mps 767 mmHg 83%
    03:00 -2°C° 0.4 mm 3 mps 766 mmHg 88%
    04:00 -2°C° 0.5 mm 3 mps 766 mmHg 89%
    05:00 -2°C° 0.5 mm 3 mps 765 mmHg 90%
    06:00 -3°C° 0.5 mm 4 mps 765 mmHg 90%
    07:00 -3°C° 0.1 mm 4 mps 765 mmHg 86%
    08:00 -3°C° 0.1 mm 4 mps 765 mmHg 81%
    09:00 -4°C° 0.1 mm 5 mps 765 mmHg 77%
    10:00 -2°C° 0.2 mm 5 mps 765 mmHg 73%
    11:00 -3°C° 0.2 mm 6 mps 765 mmHg 70%
    12:00 -2°C° 0.2 mm 6 mps 765 mmHg 66%
    13:00 -3°C° 0.2 mm 6 mps 764 mmHg 67%
    14:00 -3°C° 0.2 mm 6 mps 764 mmHg 67%
    15:00 -3°C° 0.2 mm 6 mps 764 mmHg 68%
    16:00 -4°C° 0.2 mm 6 mps 763 mmHg 72%
    17:00 -4°C° 0.2 mm 6 mps 763 mmHg 76%
    18:00 -5°C° 0.2 mm 5 mps 763 mmHg 80%
    19:00 -5°C° 0.2 mm 6 mps 763 mmHg 80%
    20:00 -5°C° 0.2 mm 6 mps 763 mmHg 80%
    21:00 -6°C° 0.2 mm 6 mps 763 mmHg 81%
    22:00 -6°C° 0.2 mm 6 mps 762 mmHg 81%
    23:00 -6°C° 0.2 mm 6 mps 762 mmHg 81%

    28 February, Wednesday

    Time Temperature Precipitation Wind Pressure Humidity
    00:00 -6°C° 0.2 mm 6 mps 762 mmHg 81%
    01:00 -6°C° 0.2 mm 6 mps 762 mmHg 80%
    02:00 -6°C° 0.2 mm 5 mps 761 mmHg 80%
    03:00 -7°C° 0.2 mm 5 mps 761 mmHg 79%
    04:00 -7°C° 0.2 mm 5 mps 761 mmHg 80%
    05:00 -7°C° 0.2 mm 4 mps 760 mmHg 80%
    06:00 -7°C° 0.2 mm 4 mps 760 mmHg 81%
    07:00 -7°C° 0.2 mm 4 mps 760 mmHg 80%
    08:00 -6°C° 0.2 mm 5 mps 760 mmHg 79%
    09:00 -6°C° 0.2 mm 5 mps 760 mmHg 79%
    10:00 -5°C° 0.2 mm 6 mps 761 mmHg 77%
    11:00 -6°C° 0.2 mm 7 mps 761 mmHg 75%
    12:00 -6°C° 0.2 mm 8 mps 761 mmHg 73%
    13:00 -6°C° 0.2 mm 8 mps 761 mmHg 73%
    14:00 -6°C° 0.2 mm 8 mps 761 mmHg 73%
    15:00 -7°C° 0.2 mm 8 mps 760 mmHg 73%
    16:00 -7°C° 0.1 mm 8 mps 760 mmHg 75%
    17:00 -8°C° 0.1 mm 7 mps 760 mmHg 78%
    18:00 -9°C° 0.1 mm 7 mps 760 mmHg 80%
    19:00 -9°C° 0.1 mm 7 mps 760 mmHg 81%
    20:00 -8°C° 0.1 mm 7 mps 760 mmHg 82%
    21:00 -8°C° 0.1 mm 7 mps 759 mmHg 82%
    22:00 -8°C° 0.1 mm 7 mps 759 mmHg 82%
    23:00 -8°C° 0.1 mm 8 mps 759 mmHg 82%

    1 March, Thursday

    Time Temperature Precipitation Wind Pressure Humidity
    00:00 -8°C° 0.1 mm 8 mps 758 mmHg 82%
    01:00 -8°C° 0.1 mm 8 mps 758 mmHg 82%
    02:00 -8°C° 0.1 mm 8 mps 757 mmHg 82%
    03:00 -9°C° 0.1 mm 9 mps 757 mmHg 82%
    04:00 -9°C° 0.1 mm 9 mps 756 mmHg 82%
    05:00 -9°C° 0.1 mm 10 mps 756 mmHg 81%
    06:00 -9°C° 0.1 mm 10 mps 755 mmHg 80%
    07:00 -8°C° 0 mm 10 mps 755 mmHg 79%
    08:00 -8°C° 0 mm 11 mps 755 mmHg 78%
    09:00 -8°C° 0 mm 11 mps 754 mmHg 77%
    10:00 -7°C° 0 mm 11 mps 754 mmHg 77%
    11:00 -7°C° 0 mm 11 mps 754 mmHg 76%
    12:00 -7°C° 0 mm 11 mps 754 mmHg 76%
    13:00 -7°C° 0 mm 11 mps 753 mmHg 76%
    14:00 -7°C° 0 mm 11 mps 753 mmHg 76%
    15:00 -7°C° 0 mm 11 mps 752 mmHg 77%
    16:00 -7°C° 0 mm 10 mps 752 mmHg 78%
    17:00 -7°C° 0 mm 10 mps 752 mmHg 79%
    18:00 -7°C° 0 mm 10 mps 751 mmHg 80%
    19:00 -7°C° 0 mm 10 mps 751 mmHg 80%
    20:00 -7°C° 0 mm 10 mps 751 mmHg 80%
    21:00 -7°C° 0 mm 10 mps 751 mmHg 80%
    22:00 -6°C° 0 mm 9 mps 750 mmHg 80%
    23:00 -6°C° 0 mm 9 mps 750 mmHg 81%

    2 March, Friday

    Time Temperature Precipitation Wind Pressure Humidity
    00:00 -6°C° 0 mm 9 mps 750 mmHg 81%
    01:00 -6°C° 0 mm 9 mps 749 mmHg 81%
    02:00 -7°C° 0 mm 10 mps 748 mmHg 81%
    03:00 -7°C° 0 mm 10 mps 748 mmHg 82%
    04:00 -7°C° 0 mm 10 mps 747 mmHg 82%
    05:00 -7°C° 0 mm 10 mps 747 mmHg 81%
    06:00 -7°C° 0 mm 10 mps 746 mmHg 81%
    07:00 -7°C° 0 mm 10 mps 746 mmHg 81%
    08:00 -7°C° 0 mm 11 mps 746 mmHg 80%
    09:00 -6°C° 0 mm 11 mps 745 mmHg 79%
    10:00 -6°C° 0.1 mm 11 mps 745 mmHg 80%
    11:00 -6°C° 0.1 mm 11 mps 744 mmHg 82%
    12:00 -5°C° 0.1 mm 10 mps 744 mmHg 83%
    13:00 -5°C° 1 mm 10 mps 743 mmHg 86%
    14:00 -5°C° 1 mm 9 mps 743 mmHg 90%
    15:00 -5°C° 1 mm 9 mps 742 mmHg 93%
    16:00 -5°C° 1.1 mm 8 mps 742 mmHg 93%
    17:00 -5°C° 1.1 mm 8 mps 741 mmHg 94%
    18:00 -4°C° 1.1 mm 7 mps 741 mmHg 94%
    19:00 -3°C° 0.6 mm 7 mps 740 mmHg 95%
    20:00 -3°C° 0.6 mm 6 mps 740 mmHg 96%
    21:00 -2°C° 0.6 mm 6 mps 740 mmHg 96%
    22:00 -1°C° 0.4 mm 5 mps 739 mmHg 97%
    23:00 -1°C° 0.4 mm 4 mps 739 mmHg 98%
    Show more